This demonstration page uses our WeatherBlox Daily Observations layout. Learn more.

Left ArrowRight Arrow

31.84235, -102.49876

Hourly Observations for March 31, 2015

Temp ( °F °C ) Dew Point ( °F °C ) Humidity (%) Winds ( mph kmh ) Pressure ( in mb ) Visibility ( mi km ) Precip ( " mm )
12:53 am 00:53 Clear 66 18.9 55 12.8 68 68 S 10 17 29.95 1014 10 16 0.00 0.00
1:53 am 01:53 Clear 63 17.2 56 13.3 78 78 S 8 13 29.95 1014 10 16 0.00 0.00
2:53 am 02:53 Clear 62 16.7 55 12.8 78 78 SSW 7 11 29.93 1014 10 16 0.00 0.00
3:53 am 03:53 Clear 63 17.2 56 13.3 78 78 SSW 10 17 29.91 1013 10 16 0.00 0.00
4:53 am 04:53 Clear 64 17.8 56 13.3 75 75 SSW 13 20 29.90 1013 10 16 0.00 0.00
5:53 am 05:53 Clear 63 17.2 56 13.3 78 78 SSW 9 15 29.89 1012 10 16 0.00 0.00
6:53 am 06:53 Clear 63 17.2 56 13.3 78 78 SSW 10 17 29.89 1012 10 16 0.00 0.00
7:53 am 07:53 Sunny 62 16.7 57 13.9 84 84 S 12 19 29.90 1013 9 14 0.00 0.00
8:53 am 08:53 Sunny 64 17.8 57 13.9 78 78 SSW 8 13 29.91 1013 9 14 0.00 0.00
9:53 am 09:53 Sunny 67 19.4 58 14.4 73 73 SW 6 9 29.92 1013 10 16 0.00 0.00
10:53 am 10:53 Sunny 71 21.7 57 13.9 61 61 SW 9 15 29.93 1013 10 16 0.00 0.00
11:53 am 11:53 Sunny 74 23.3 57 13.9 56 56 SSW 12 19 29.92 1013 10 16 0.00 0.00
12:53 pm 12:53 Sunny 76 24.4 54 12.2 47 47 SW 12 19 29.91 1013 10 16 0.00 0.00
1:53 pm 13:53 Sunny 77 25 52 11.1 42 42 SW 12 19 29.90 1013 10 16 0.00 0.00
2:53 pm 14:53 Sunny 79 26.1 46 7.8 31 31 W 12 19 29.87 1012 10 16 0.00 0.00
3:53 pm 15:53 Sunny 80 26.7 44 6.7 28 28 W 12 19 29.84 1010 10 16 0.00 0.00
4:53 pm 16:53 Mostly Sunny 80 26.7 44 6.7 28 28 WSW 12 19 29.81 1010 10 16 0.00 0.00
5:53 pm 17:53 Sunny 81 27.2 38 3.3 21 21 W 10 17 29.79 1009 10 16 0.00 0.00
6:53 pm 18:53 Cloudy with Haze 74 23.3 44 6.7 34 34 SSW 21 33 29.83 1010 5 8 0.00 0.00
7:53 pm 19:53 Partly Cloudy 73 22.8 42 5.6 33 33 SSW 7 11 29.82 1010 10 16 0.00 0.03
8:53 pm 20:53 Cloudy 72 22.2 42 5.6 34 34 Calm 29.83 1010 10 16 0.00 0.00
9:53 pm 21:53 Cloudy 72 22.2 43 6.1 35 35 W 3 6 29.83 1010 10 16 0.00 0.00
10:53 pm 22:53 Cloudy 68 20 47 8.3 47 47 SSW 6 9 29.83 1010 10 16 0.00 0.00
11:53 pm 23:53 Partly Cloudy 69 20.6 45 7.2 42 42 SSW 9 15 29.83 1010 10 16 0.00 0.00

Powered by AerisWeather